Location: Les Jeannots
(43.2262°N, 5.5774°E)
Time: 19:16:15
(UTC+00:00)

NOSS 3-4 (A) - Pass Details

Date: 05 July 2020
Orbit: 892 x 1320 km, 63.4° (Epoch: 12 July)

Event Time Altitude Azimuth Distance (km) Brightness Sun altitude
Rises 22:05:54 0° 324° (NW) 3,815 8.1 -20.5°
Reaches altitude 10° 22:08:28 10° 328° (NNW) 2,918 7.2 -20.6°
Maximum altitude 22:15:24 62° 49° (NE) 1,289 4.1 -21.1°
Enters shadow 22:19:47 27° 122° (ESE) 2,143 4.8 -21.4°
